TimeCDT,TemperatureF,Dew PointF,Humidity,Sea Level PressureIn,VisibilityMPH,Wind Direction,Wind SpeedMPH,Gust SpeedMPH,PrecipitationIn,Events,Conditions,WindDirDegrees,DateUTC
12:53 AM,43.0,41.0,93,30.01,7.0,ENE,4.6,-,N/A,,Mostly Cloudy,70,2013-04-09 05:53:00
1:53 AM,45.0,42.1,90,29.99,8.0,ENE,6.9,-,N/A,,Overcast,70,2013-04-09 06:53:00
2:53 AM,46.0,42.1,86,29.99,9.0,ENE,5.8,-,N/A,,Mostly Cloudy,70,2013-04-09 07:53:00
3:53 AM,46.9,43.0,86,29.98,10.0,ENE,5.8,-,N/A,,Partly Cloudy,70,2013-04-09 08:53:00
4:53 AM,46.9,43.0,86,29.97,10.0,East,9.2,-,N/A,,Clear,80,2013-04-09 09:53:00
5:53 AM,48.0,43.0,83,29.98,10.0,ENE,8.1,-,N/A,,Clear,60,2013-04-09 10:53:00
6:53 AM,50.0,44.1,80,29.97,10.0,East,6.9,-,N/A,,Overcast,80,2013-04-09 11:53:00
7:53 AM,52.0,45.0,77,29.95,10.0,ESE,8.1,-,N/A,,Mostly Cloudy,110,2013-04-09 12:53:00
8:53 AM,55.0,46.9,74,29.95,10.0,ESE,4.6,-,N/A,,Overcast,120,2013-04-09 13:53:00
9:53 AM,57.0,50.0,77,29.94,10.0,SE,4.6,-,N/A,,Overcast,140,2013-04-09 14:53:00
10:53 AM,62.1,53.1,72,29.91,10.0,SSE,9.2,-,N/A,,Overcast,150,2013-04-09 15:53:00
11:53 AM,71.1,57.0,61,29.87,10.0,South,9.2,-,N/A,,Mostly Cloudy,180,2013-04-09 16:53:00
12:53 PM,72.0,57.9,61,29.85,10.0,SSW,18.4,23.0,N/A,,Overcast,200,2013-04-09 17:53:00
1:53 PM,73.0,57.9,59,29.85,10.0,SW,11.5,-,N/A,,Overcast,220,2013-04-09 18:53:00
2:53 PM,73.0,57.9,59,29.84,10.0,WSW,11.5,-,N/A,,Overcast,240,2013-04-09 19:53:00
3:53 PM,78.1,57.0,48,29.81,10.0,SW,20.7,28.8,N/A,,Scattered Clouds,220,2013-04-09 20:53:00
4:53 PM,75.9,55.9,50,29.83,10.0,SSW,15.0,-,N/A,,Overcast,210,2013-04-09 21:53:00
5:53 PM,66.0,51.1,59,29.87,10.0,NNW,11.5,-,N/A,,Overcast,340,2013-04-09 22:53:00
6:00 PM,60.8,48.2,63,29.87,10.0,NNW,15.0,-,N/A,,Overcast,340,2013-04-09 23:00:00
6:53 PM,52.0,46.0,80,29.89,9.0,NNW,10.4,-,N/A,,Overcast,330,2013-04-09 23:53:00
7:53 PM,45.0,42.1,90,29.92,7.0,NNW,9.2,-,N/A,,Overcast,340,2013-04-10 00:53:00
8:07 PM,44.6,42.8,93,29.92,7.0,North,9.2,-,N/A,,Overcast,360,2013-04-10 01:07:00
8:24 PM,44.6,42.8,93,29.92,7.0,North,9.2,-,N/A,,Overcast,350,2013-04-10 01:24:00
8:53 PM,45.0,43.0,93,29.94,6.0,North,8.1,-,N/A,,Overcast,350,2013-04-10 01:53:00
9:53 PM,44.1,42.1,93,29.94,3.0,North,6.9,-,N/A,,Overcast,360,2013-04-10 02:53:00
10:53 PM,43.0,42.1,97,29.93,5.0,North,6.9,-,N/A,,Overcast,360,2013-04-10 03:53:00
11:53 PM,43.0,42.1,97,29.91,6.0,NNW,4.6,-,N/A,,Overcast,340,2013-04-10 04:53:00